Flag for Romania Weather past 2 weeks in Timișoara, Romania

Now
81 °F

Sunny.


Feels Like: 82 °F
Forecast: 62 / 89 °F
Wind: 3 mph from Southwest

Location: Timisoara Airport

Current Time: Aug 20, 2014 at 8:23:27 PM

Latest Report: Aug 20, 2014 at 8:00 PM


Visibility: 10 mi

Pressure: 29.89 "Hg

Humidity: 54%

Dew point: 63 °F

Location of TimișoaraLocation

Historic Weather in Timișoara — Graph

°F

Timișoara temperature yesterday

Maximum temperature yesterday: 84 °F (at 3:30 PM)
Minimum temperature yesterday: 55 °F (at 2:30 AM)
Average temperature yesterday: 69 °F

Past Weeks' High & Low Weather Summary

 TemperatureHumidityPressure
High95 °F (Aug 14, 4:00 PM)100% (Aug 5, 7:30 PM)30.01 "Hg (Aug 5, 7:30 PM)
Low50 °F (Aug 18, 6:00 AM)34% (Aug 14, 5:00 PM)29.74 "Hg (Aug 14, 2:30 PM)
Average72 °F78%29.92 "Hg
* Reported Aug 5 7:00 PM — Aug 20 7:00 PM, Timișoara, Weather by CustomWeather, © 2014

Note: Actual official high and low records may vary slightly from our data, if they occured in-between our weather recording intervals... More about our weather records

Advertising

Timișoara weather history for previous 24 hours

 ConditionsComfort  
Time TempWeatherWind HumidityBarometerVisibility
7:00 PM
Aug 20
84 °FPassing clouds.7 mph48%29.89 "HgN/A
6:30 PM82 °FPassing clouds.8 mph48%29.89 "HgN/A
6:00 PM84 °FPassing clouds.8 mph45%29.89 "HgN/A
5:30 PM86 °FPassing clouds.9 mph46%29.89 "HgN/A
5:00 PM86 °FPassing clouds.7 mph46%29.89 "HgN/A
4:30 PM86 °FPassing clouds.7 mph46%29.92 "HgN/A
4:00 PM86 °FPassing clouds.7 mph40%29.92 "HgN/A
3:30 PM86 °FPassing clouds.7 mph40%29.92 "HgN/A
3:00 PM84 °FPassing clouds.9 mph40%29.92 "HgN/A
2:30 PM84 °FPassing clouds.9 mph40%29.92 "HgN/A
2:00 PM84 °FPassing clouds.12 mph37%29.92 "HgN/A
1:30 PM84 °FPassing clouds.5 mph40%29.92 "HgN/A
1:00 PM82 °FSunny.5 mph45%29.95 "Hg10 mi
12:30 PM82 °FSunny.5 mph55%29.95 "Hg10 mi
11:30 AM79 °FPassing clouds.6 mph61%29.95 "HgN/A
11:00 AM77 °FPassing clouds.6 mph61%29.95 "HgN/A
10:30 AM75 °FPassing clouds.8 mph65%29.95 "HgN/A
10:00 AM73 °FPassing clouds.7 mph65%29.95 "HgN/A
9:30 AM72 °FPassing clouds.8 mph73%29.95 "HgN/A
9:00 AM70 °FPassing clouds.8 mph78%29.95 "HgN/A
8:30 AM66 °FPassing clouds.6 mph88%29.95 "HgN/A
8:00 AM64 °FPassing clouds.3 mph94%29.95 "HgN/A
7:30 AM63 °FPassing clouds.3 mph94%29.95 "HgN/A
7:00 AM63 °FClear.5 mph94%29.95 "Hg10 mi
6:30 AM61 °FPassing clouds.3 mph100%29.95 "HgN/A
6:00 AM63 °FClear.2 mph94%29.95 "Hg10 mi
5:30 AM63 °FPassing clouds.5 mph94%29.95 "HgN/A
5:00 AM61 °FClear.5 mph100%29.95 "Hg10 mi
4:30 AM59 °FPassing clouds.5 mph100%29.95 "HgN/A
4:00 AM61 °FClear.5 mph94%29.95 "Hg10 mi
3:30 AM59 °FPassing clouds.5 mph100%29.95 "HgN/A
3:00 AM59 °FClear.5 mph94%29.95 "Hg10 mi
2:30 AM59 °FClear.5 mph100%29.95 "Hg10 mi
2:00 AM61 °FClear.5 mph94%29.95 "Hg10 mi
1:30 AM61 °FPassing clouds.3 mph94%29.95 "HgN/A
1:00 AM61 °FClear.5 mph94%29.95 "Hg10 mi
12:30 AM63 °FClear.3 mph94%29.95 "Hg10 mi
12:00 AM63 °FClear.5 mph94%29.98 "Hg10 mi
11:30 PM
Aug 19
64 °FClear.3 mph94%29.98 "Hg10 mi
11:00 PM66 °FClear.5 mph83%29.95 "Hg10 mi
10:30 PM70 °FClear.1 mph73%29.95 "Hg10 mi
10:00 PM68 °FClear.1 mph83%29.95 "Hg10 mi
9:30 PM70 °FSunny.No wind73%29.95 "Hg10 mi
9:00 PM75 °FSunny.2 mph54%29.95 "Hg10 mi
8:30 PM77 °FSunny.3 mph51%29.92 "Hg10 mi
8:00 PM79 °FSunny.2 mph48%29.92 "Hg10 mi
Weather by CustomWeather, © 2014

See weather overviewHow to use our weather pages